Location: Cactus School
(34.5700°N, 118.0931°W)
Time: 00:15:36
(UTC-08:00)

OTV 5 (USA 277) - Pass Details

Date: 13 November 2017
Orbit: 404 x 417 km, 43.0° (Epoch: 07 September)

Event Time Altitude Azimuth Distance (km) Brightness Sun altitude
Exits shadow 04:34:48 17° 24° (NNE) 1,098 ? -22.6°
Drops below altitude 10° 04:36:03 10° 43° (NE) 1,455 ? -22.4°
Sets 04:38:26 0° 58° (ENE) 2,316 ? -21.9°
